Regional Weather Roundup
Issued by NWS Mobile, AL

Home | Current Version | Previous Version | Text Only | Print | Product List | Glossary On
Versions: 1 2 3 4 5 6 7 8 9 10 11 12 13 14 15 16 17 18 19 20 21 22 23 24 25 26 27 28 29 30 31 32 33 34 35 36 37 38 39 40 41 42 43 44 45 46 47 48 49 50
000
ASUS44 KMOB 011516
RWRMOB
REGIONAL WEATHER ROUNDUP
NATIONAL WEATHER SERVICE MOBILE AL
1000 AM CDT WED JUL 01 2015

ALZ061>064-011600-
COASTAL ALABAMA


CITY           SKY/WX    TMP DP  RH WIND       PRES   REMARKS
MOBILE REG APT PTSUNNY   81  70  69 VRB5      30.14R
BROOKLEY FIELD SUNNY     85  70  60 VRB3      30.14R
GULF SHORES    MOSUNNY   83  73  71 S6        30.13S

$$

ALZ051>060-011600-
INTERIOR SOUTHWEST AND SOUTH CENTRAL ALABAMA


CITY           SKY/WX    TMP DP  RH WIND       PRES   REMARKS
ANDALUSIA/OPP  SUNNY     87  68  52 W8        30.11R
EVERGREEN      SUNNY     83  70  64 W7        30.12R
FLORALA        SUNNY     83  69  62 W5        30.15R
GREENVILLE     FAIR      83  70  64 W7        30.10R

$$

FLZ001>006-011600-
WESTERN FLORIDA PANHANDLE


CITY           SKY/WX    TMP DP  RH WIND       PRES   REMARKS
CRESTVIEW      SUNNY     85  71  63 SW8       30.15R
DESTIN         MOSUNNY   83  73  72 CALM      30.14R
DUKE FIELD     MOSUNNY   85  68  56 W9        30.14R
MARY ESTHER    MOSUNNY   83  71  67 CALM      30.13R
MILTON         MOSUNNY   87  70  56 SW9       30.13S
PENSACOLA      MOSUNNY   83  69  62 SW8       30.13R
NAS PENSACOLA  PTSUNNY   82  71  69 SW8       30.13R
VALPARAISO     PTSUNNY   84  72  66 S8        30.14R

$$

...MARINE OBSERVATIONS...

STATION/POSITION TIME  SKY/WX   TEMP    WIND        PRES    VSBY
                                AIR SEA DIR/SP/G
                 (UTC)          (F)     (DEG/KT/KT) (MB)    (MI)
PASCAGOULA       1400            81     300/  3/  4 1019.9R
PETIT BOIS ISL   1400            82     260/  5/  6 1020.5R
E DAUPHIN ISLAND 1500            82     220/  5/  7 1020.1R
MIDDLE BAY LIGHT 1400            79     270/  6     1019.6R
USCG MOBILE BAY  1400            81 83  260/  8/ 10 1018.8R
STATE DOCKS      1400            83 85              1019.5R
MEAHER PARK      1500            81     190/  5     1019.6R
FORT MORGAN      1400            82     260/  7/  8 1019.7R
12 S ORANGE BCH  1450            81 83  260/  2/  4 1019.9R
WVE H/P(F/S)=  2/ 5

PENSACOLA BAY    1400            84 85  200/  3/  4 1020.3R
64 S DAUPHIN ISL 1450            84 85  200/  8/ 10 1020.7R
WVE H/P(F/S)=  1/ 6

67 S FORT MORGAN 1430            82     170/ 12     1020.7R
115 SE PENSACOLA 1450            84 83  250/ 10/ 12 1020.4F
WVE H/P(F/S)=  2/ 4

MID GULF/42001   1450            84 85  130/ 14/ 16 1020.0R
WVE H/P(F/S)=  2/ 3

EAST GULF/42003  1450            84 85   60/ 14/ 16 1020.4F
WVE H/P(F/S)=  2/ 9


$$

...NEARBY LOCATIONS

CITY           SKY/WX    TMP DP  RH WIND       PRES   REMARKS
GULFPORT       MOSUNNY   83  66  56 SW5       30.12R
BILOXI         MOSUNNY   84  70  62 W3        30.12S
PASCAGOULA     MOSUNNY   85  71  63 SW3       30.13R
HATTIESBURG    SUNNY     83  69  62 SW6       30.12S
LAUREL         SUNNY     81  68  65 W6        30.13F
MERIDIAN       MOSUNNY   80  69  69 SW7       30.09S
MERIDIAN NAS   PTSUNNY   78  69  73 W9        30.08S
MONTGOMERY     MOSUNNY   82  72  71 W6        30.09R
MAXWELL AFB    MOSUNNY   80  72  76 SW6       30.08R
TROY           SUNNY     82  71  69 SW8       30.11R
FORT RUCKER    SUNNY     85  70  60 W5        30.10R
DALEVILLE      SUNNY     84  70  62 W8        30.11S
DOTHAN         SUNNY     83  71  67 W7        30.14S

$$

...OTHER SURROUNDING LOCATIONS...

CITY           SKY/WX    TMP DP  RH WIND       PRES   REMARKS
BIRMINGHAM     PTSUNNY   77  70  79 SW7       30.08S
TUSCALOOSA     PTSUNNY   78  71  79 S7        30.07S
COLUMBUS GA    PTSUNNY   76  68  76 W7        30.08S
PANAMA CITY    NOT AVBL
TALLAHASSEE    PTSUNNY   84  70  62 W8        30.13R
BATON ROUGE    SUNNY     84  75  74 SW9       30.11R
NEW ORLEANS    PTSUNNY   84  72  67 SW7       30.11S
SLIDELL        SUNNY     85  73  67 SW6       30.11R
JACKSON        SUNNY     81  70  69 SW9       30.09S
MCCOMB         SUNNY     81  73  76 VRB6      30.12S

$$

...SURROUNDING MARINE OBSERVATIONS...

STATION/POSITION TIME  SKY/WX   TEMP    WIND        PRES    VSBY
                                AIR SEA DIR/SP/G
                 (UTC)          (F)     (DEG/KT/KT) (MB)    (MI)
WAVELAND         1400            80 85   40/  1/  2 1019.9R
PASCAGOULA RGN A 1400            82     270/  4/  5 1019.6R
PASCAGOULA PORT  1400               81                N/A
GRAND ISLE       1400            85 84  200/  5/ 10 1019.6R
SOUTHWEST PASS   1500            83     190/ 11/ 12 1020.5R
PILOT STATION E  1400            83 82  190/  5/  7 1020.1R
SHELL BEACH      1400            81 83  200/  4/  5 1019.1R
PANAMA CITY      1400            81 82  170/  3/  4 1019.5R
APALACHICOLA     1400            81 84  270/  3/  4 1020.2R
TYNDALL TOWER C  1500            81     260/ 10/ 11 1020.4R
S APLCHCLA/42036 1450            85 85  230/ 12/ 14 1020.3F
WVE H/P(F/S)=  2/ 5


$$




USA.gov is the U.S. government's official web portal to all federal, state and local government web resources and services.